owner,sensor,date,latitude,longitude,vertical_datum,sea_water_practical_salinity,qcFlag 
SCCF RECON,ioos:station:SCCF:12:1,2009-09-01T00:00:00Z,26.4966,-82.1479,1.99,30.91,1111122 
SCCF RECON,ioos:station:SCCF:12:1,2009-09-01T01:00:00Z,26.4966,-82.1479,2.13,30.26,1111122 
SCCF RECON,ioos:station:SCCF:12:1,2009-09-01T02:00:00Z,26.4966,-82.1479,2.26,30.19,1111122 
SCCF RECON,ioos:station:SCCF:12:1,2009-09-01T03:00:00Z,26.4966,-82.1479,2.364,30.14,1111122 
SCCF RECON,ioos:station:SCCF:12:1,2009-09-01T04:00:00Z,26.4966,-82.1479,2.42,30.12,1111122 
SCCF RECON,ioos:station:SCCF:12:1,2009-09-01T05:00:00Z,26.4966,-82.1479,2.404,29.46,1111122 
SCCF RECON,ioos:station:SCCF:12:1,2009-09-01T06:00:00Z,26.4966,-82.1479,2.37,29.24,1111122 
SCCF RECON,ioos:station:SCCF:12:1,2009-09-01T07:00:00Z,26.4966,-82.1479,2.347,29.11,1111122 
SCCF RECON,ioos:station:SCCF:12:1,2009-09-01T08:00:00Z,26.4966,-82.1479,2.31,29.04,1111122 
SCCF RECON,ioos:station:SCCF:12:1,2009-09-01T09:00:00Z,26.4966,-82.1479,2.27,28.7,1111122 
SCCF RECON,ioos:station:SCCF:12:1,2009-09-01T10:00:00Z,26.4966,-82.1479,2.27,28.61,1111122 
SCCF RECON,ioos:station:SCCF:12:1,2009-09-01T11:00:00Z,26.4966,-82.1479,2.32,28.52,1111122 
SCCF RECON,ioos:station:SCCF:12:1,2009-09-01T12:00:00Z,26.4966,-82.1479,2.39,28.36,1111122 
SCCF RECON,ioos:station:SCCF:12:1,2009-09-01T13:00:00Z,26.4966,-82.1479,2.48,29.03,1111122 
SCCF RECON,ioos:station:SCCF:12:1,2009-09-01T14:00:00Z,26.4966,-82.1479,2.57,29.0,1111122 
SCCF RECON,ioos:station:SCCF:12:1,2009-09-01T15:00:00Z,26.4966,-82.1479,2.63,28.99,1111122 
SCCF RECON,ioos:station:SCCF:12:1,2009-09-01T16:00:00Z,26.4966,-82.1479,2.64,29.33,1111122 
SCCF RECON,ioos:station:SCCF:12:1,2009-09-01T17:00:00Z,26.4966,-82.1479,2.591,29.01,1111122 
SCCF RECON,ioos:station:SCCF:12:1,2009-09-01T18:00:00Z,26.4966,-82.1479,2.5,28.9,1111122 
SCCF RECON,ioos:station:SCCF:12:1,2009-09-01T19:00:00Z,26.4966,-82.1479,2.377,28.47,1111122 
SCCF RECON,ioos:station:SCCF:12:1,2009-09-01T20:00:00Z,26.4966,-82.1479,2.237,28.4,1111122 
SCCF RECON,ioos:station:SCCF:12:1,2009-09-01T21:00:00Z,26.4966,-82.1479,2.119,28.42,1111122 
SCCF RECON,ioos:station:SCCF:12:1,2009-09-01T22:00:00Z,26.4966,-82.1479,2.029,28.68,1111122 
SCCF RECON,ioos:station:SCCF:12:1,2009-09-01T23:00:00Z,26.4966,-82.1479,1.972,28.76,1111122 
SCCF RECON,ioos:station:SCCF:12:1,2009-09-02T00:00:00Z,26.4966,-82.1479,1.97,29.03,1111122 
SCCF RECON,ioos:station:SCCF:12:1,2009-09-02T01:00:00Z,26.4966,-82.1479,2.089,29.34,1111122 
SCCF RECON,ioos:station:SCCF:12:1,2009-09-02T02:00:00Z,26.4966,-82.1479,2.22,29.29,1111122 
SCCF RECON,ioos:station:SCCF:12:1,2009-09-02T03:00:00Z,26.4966,-82.1479,2.331,29.54,1111122 
SCCF RECON,ioos:station:SCCF:12:1,2009-09-02T04:00:00Z,26.4966,-82.1479,2.43,29.26,1111122 
SCCF RECON,ioos:station:SCCF:12:1,2009-09-02T05:00:00Z,26.4966,-82.1479,2.49,29.17,1111122 
SCCF RECON,ioos:station:SCCF:12:1,2009-09-02T06:00:00Z,26.4966,-82.1479,2.481,28.66,1111122 
SCCF RECON,ioos:station:SCCF:12:1,2009-09-02T07:00:00Z,26.4966,-82.1479,2.41,28.36,1111122 
SCCF RECON,ioos:station:SCCF:12:1,2009-09-02T08:00:00Z,26.4966,-82.1479,2.34,28.35,1111122 
SCCF RECON,ioos:station:SCCF:12:1,2009-09-02T09:00:00Z,26.4966,-82.1479,2.299,28.09,1111122 
SCCF RECON,ioos:station:SCCF:12:1,2009-09-02T10:00:00Z,26.4966,-82.1479,2.27,28.05,1111122 
SCCF RECON,ioos:station:SCCF:12:1,2009-09-02T11:00:00Z,26.4966,-82.1479,2.29,28.04,1111122 
SCCF RECON,ioos:station:SCCF:12:1,2009-09-02T12:00:00Z,26.4966,-82.1479,2.36,28.32,1111122 
SCCF RECON,ioos:station:SCCF:12:1,2009-09-02T13:00:00Z,26.4966,-82.1479,2.45,28.55,1111122 
SCCF RECON,ioos:station:SCCF:12:1,2009-09-02T14:00:00Z,26.4966,-82.1479,2.543,28.79,1111122 
SCCF RECON,ioos:station:SCCF:12:1,2009-09-02T15:00:00Z,26.4966,-82.1479,2.62,28.69,1111122 
SCCF RECON,ioos:station:SCCF:12:1,2009-09-02T16:00:00Z,26.4966,-82.1479,2.66,28.79,1111122 
SCCF RECON,ioos:station:SCCF:12:1,2009-09-02T17:00:00Z,26.4966,-82.1479,2.64,28.71,1111122 
SCCF RECON,ioos:station:SCCF:12:1,2009-09-02T18:00:00Z,26.4966,-82.1479,2.57,28.64,1111122 
SCCF RECON,ioos:station:SCCF:12:1,2009-09-02T19:00:00Z,26.4966,-82.1479,2.46,28.36,1111122 
SCCF RECON,ioos:station:SCCF:12:1,2009-09-02T20:00:00Z,26.4966,-82.1479,2.319,28.27,1111122 
SCCF RECON,ioos:station:SCCF:12:1,2009-09-02T21:00:00Z,26.4966,-82.1479,2.18,28.02,1111122 
SCCF RECON,ioos:station:SCCF:12:1,2009-09-02T22:00:00Z,26.4966,-82.1479,2.07,28.03,1111122 
SCCF RECON,ioos:station:SCCF:12:1,2009-09-02T23:00:00Z,26.4966,-82.1479,1.99,28.24,1111122 
SCCF RECON,ioos:station:SCCF:12:1,2009-09-03T00:00:00Z,26.4966,-82.1479,1.97,28.81,1111122 
SCCF RECON,ioos:station:SCCF:12:1,2009-09-03T01:00:00Z,26.4966,-82.1479,2.074,29.18,1111122 
SCCF RECON,ioos:station:SCCF:12:1,2009-09-03T02:00:00Z,26.4966,-82.1479,2.24,29.27,1111122 
SCCF RECON,ioos:station:SCCF:12:1,2009-09-03T03:00:00Z,26.4966,-82.1479,2.37,29.28,1111122 
SCCF RECON,ioos:station:SCCF:12:1,2009-09-03T04:00:00Z,26.4966,-82.1479,2.449,29.29,1111122 
SCCF RECON,ioos:station:SCCF:12:1,2009-09-03T05:00:00Z,26.4966,-82.1479,2.49,29.1,1111122 
SCCF RECON,ioos:station:SCCF:12:1,2009-09-03T06:00:00Z,26.4966,-82.1479,2.5,29.1,1111122 
SCCF RECON,ioos:station:SCCF:12:1,2009-09-03T07:00:00Z,26.4966,-82.1479,2.46,28.63,1111122 
SCCF RECON,ioos:station:SCCF:12:1,2009-09-03T08:00:00Z,26.4966,-82.1479,2.389,28.37,1111122 
SCCF RECON,ioos:station:SCCF:12:1,2009-09-03T09:00:00Z,26.4966,-82.1479,2.32,28.22,1111122 
SCCF RECON,ioos:station:SCCF:12:1,2009-09-03T10:00:00Z,26.4966,-82.1479,2.26,27.95,1111122 
SCCF RECON,ioos:station:SCCF:12:1,2009-09-03T11:00:00Z,26.4966,-82.1479,2.21,28.31,1111122 
SCCF RECON,ioos:station:SCCF:12:1,2009-09-03T12:00:00Z,26.4966,-82.1479,2.238,27.9,1111122 
SCCF RECON,ioos:station:SCCF:12:1,2009-09-03T13:00:00Z,26.4966,-82.1479,2.31,28.38,1111122 
SCCF RECON,ioos:station:SCCF:12:1,2009-09-03T14:00:00Z,26.4966,-82.1479,2.45,28.65,1111122 
SCCF RECON,ioos:station:SCCF:12:1,2009-09-03T15:00:00Z,26.4966,-82.1479,2.591,28.6,1111122 
SCCF RECON,ioos:station:SCCF:12:1,2009-09-03T16:00:00Z,26.4966,-82.1479,2.718,28.89,1111122 
SCCF RECON,ioos:station:SCCF:12:1,2009-09-03T17:00:00Z,26.4966,-82.1479,2.74,28.58,1111122 
SCCF RECON,ioos:station:SCCF:12:1,2009-09-03T18:00:00Z,26.4966,-82.1479,2.631,28.49,1111122 
SCCF RECON,ioos:station:SCCF:12:1,2009-09-03T19:00:00Z,26.4966,-82.1479,2.507,28.4,1111122 
SCCF RECON,ioos:station:SCCF:12:1,2009-09-03T20:00:00Z,26.4966,-82.1479,2.372,28.1,1111122 
SCCF RECON,ioos:station:SCCF:12:1,2009-09-03T21:00:00Z,26.4966,-82.1479,2.247,28.11,1111122 
SCCF RECON,ioos:station:SCCF:12:1,2009-09-03T22:00:00Z,26.4966,-82.1479,2.14,28.18,1111122 
SCCF RECON,ioos:station:SCCF:12:1,2009-09-03T23:00:00Z,26.4966,-82.1479,2.05,28.23,1111122 
SCCF RECON,ioos:station:SCCF:12:1,2009-09-04T00:00:00Z,26.4966,-82.1479,1.991,29.19,1111122 
SCCF RECON,ioos:station:SCCF:12:1,2009-09-04T01:00:00Z,26.4966,-82.1479,2.021,29.98,1111122 
SCCF RECON,ioos:station:SCCF:12:1,2009-09-04T02:00:00Z,26.4966,-82.1479,2.17,29.52,1111122 
SCCF RECON,ioos:station:SCCF:12:1,2009-09-04T03:00:00Z,26.4966,-82.1479,2.32,29.87,1111122 
SCCF RECON,ioos:station:SCCF:12:1,2009-09-04T04:00:00Z,26.4966,-82.1479,2.427,29.43,1111122 
SCCF RECON,ioos:station:SCCF:12:1,2009-09-04T05:00:00Z,26.4966,-82.1479,2.5,29.05,1111122 
SCCF RECON,ioos:station:SCCF:12:1,2009-09-04T06:00:00Z,26.4966,-82.1479,2.54,28.79,1111122 
SCCF RECON,ioos:station:SCCF:12:1,2009-09-04T07:00:00Z,26.4966,-82.1479,2.52,28.3,1111122 
SCCF RECON,ioos:station:SCCF:12:1,2009-09-04T08:00:00Z,26.4966,-82.1479,2.44,28.25,1111122 
SCCF RECON,ioos:station:SCCF:12:1,2009-09-04T09:00:00Z,26.4966,-82.1479,2.331,27.92,1111122 
SCCF RECON,ioos:station:SCCF:12:1,2009-09-04T10:00:00Z,26.4966,-82.1479,2.244,27.74,1111122 
SCCF RECON,ioos:station:SCCF:12:1,2009-09-04T11:00:00Z,26.4966,-82.1479,2.18,28.2,1111122 
SCCF RECON,ioos:station:SCCF:12:1,2009-09-04T12:00:00Z,26.4966,-82.1479,2.168,27.76,1111122 
SCCF RECON,ioos:station:SCCF:12:1,2009-09-04T13:00:00Z,26.4966,-82.1479,2.237,27.68,1111122 
SCCF RECON,ioos:station:SCCF:12:1,2009-09-04T14:00:00Z,26.4966,-82.1479,2.37,27.8,1111122 
SCCF RECON,ioos:station:SCCF:12:1,2009-09-04T15:00:00Z,26.4966,-82.1479,2.53,28.28,1111122 
SCCF RECON,ioos:station:SCCF:12:1,2009-09-04T16:00:00Z,26.4966,-82.1479,2.627,28.5,1111122 
SCCF RECON,ioos:station:SCCF:12:1,2009-09-04T17:00:00Z,26.4966,-82.1479,2.671,28.62,1111122 
SCCF RECON,ioos:station:SCCF:12:1,2009-09-04T18:00:00Z,26.4966,-82.1479,2.675,28.42,1111122 
SCCF RECON,ioos:station:SCCF:12:1,2009-09-04T19:00:00Z,26.4966,-82.1479,2.61,28.2,1111122 
SCCF RECON,ioos:station:SCCF:12:1,2009-09-04T20:00:00Z,26.4966,-82.1479,2.51,27.95,1111122 
SCCF RECON,ioos:station:SCCF:12:1,2009-09-04T21:00:00Z,26.4966,-82.1479,2.379,27.95,1111122 
SCCF RECON,ioos:station:SCCF:12:1,2009-09-04T22:00:00Z,26.4966,-82.1479,2.25,27.85,1111122 
SCCF RECON,ioos:station:SCCF:12:1,2009-09-04T23:00:00Z,26.4966,-82.1479,2.15,27.73,1111122 
SCCF RECON,ioos:station:SCCF:12:1,2009-09-05T00:00:00Z,26.4966,-82.1479,2.078,28.14,1111122 
SCCF RECON,ioos:station:SCCF:12:1,2009-09-05T01:00:00Z,26.4966,-82.1479,2.04,27.67,1111122 
SCCF RECON,ioos:station:SCCF:12:1,2009-09-05T02:00:00Z,26.4966,-82.1479,2.159,28.12,1111122 
SCCF RECON,ioos:station:SCCF:12:1,2009-09-05T03:00:00Z,26.4966,-82.1479,2.31,29.24,1111122 
SCCF RECON,ioos:station:SCCF:12:1,2009-09-05T04:00:00Z,26.4966,-82.1479,2.43,28.57,1111122 
SCCF RECON,ioos:station:SCCF:12:1,2009-09-05T05:00:00Z,26.4966,-82.1479,2.53,28.4,1111122 
SCCF RECON,ioos:station:SCCF:12:1,2009-09-05T06:00:00Z,26.4966,-82.1479,2.58,28.14,1111122 
SCCF RECON,ioos:station:SCCF:12:1,2009-09-05T07:00:00Z,26.4966,-82.1479,2.54,27.73,1111122 
SCCF RECON,ioos:station:SCCF:12:1,2009-09-05T08:00:00Z,26.4966,-82.1479,2.477,27.67,1111122 
SCCF RECON,ioos:station:SCCF:12:1,2009-09-05T09:00:00Z,26.4966,-82.1479,2.42,27.44,1111122 
SCCF RECON,ioos:station:SCCF:12:1,2009-09-05T10:00:00Z,26.4966,-82.1479,2.32,27.52,1111122 
SCCF RECON,ioos:station:SCCF:12:1,2009-09-05T11:00:00Z,26.4966,-82.1479,2.199,27.39,1111122 
SCCF RECON,ioos:station:SCCF:12:1,2009-09-05T12:00:00Z,26.4966,-82.1479,2.121,27.41,1111122 
SCCF RECON,ioos:station:SCCF:12:1,2009-09-05T13:00:00Z,26.4966,-82.1479,2.122,27.56,1111122 
SCCF RECON,ioos:station:SCCF:12:1,2009-09-05T14:00:00Z,26.4966,-82.1479,2.22,27.6,1111122 
SCCF RECON,ioos:station:SCCF:12:1,2009-09-05T15:00:00Z,26.4966,-82.1479,2.396,27.79,1111122 
SCCF RECON,ioos:station:SCCF:12:1,2009-09-05T16:00:00Z,26.4966,-82.1479,2.543,28.03,1111122 
SCCF RECON,ioos:station:SCCF:12:1,2009-09-05T17:00:00Z,26.4966,-82.1479,2.631,28.01,1111122 
SCCF RECON,ioos:station:SCCF:12:1,2009-09-05T18:00:00Z,26.4966,-82.1479,2.66,28.07,1111122 
SCCF RECON,ioos:station:SCCF:12:1,2009-09-05T19:00:00Z,26.4966,-82.1479,2.65,27.98,1111122 
SCCF RECON,ioos:station:SCCF:12:1,2009-09-05T20:00:00Z,26.4966,-82.1479,2.578,27.52,1111122 
SCCF RECON,ioos:station:SCCF:12:1,2009-09-05T21:00:00Z,26.4966,-82.1479,2.493,27.2,1111122 
SCCF RECON,ioos:station:SCCF:12:1,2009-09-05T22:00:00Z,26.4966,-82.1479,2.34,27.24,1111122 
SCCF RECON,ioos:station:SCCF:12:1,2009-09-05T23:00:00Z,26.4966,-82.1479,2.22,27.22,1111122 
SCCF RECON,ioos:station:SCCF:12:1,2009-09-06T00:00:00Z,26.4966,-82.1479,2.12,27.25,1111122 
SCCF RECON,ioos:station:SCCF:12:1,2009-09-06T01:00:00Z,26.4966,-82.1479,2.08,27.29,1111122 
SCCF RECON,ioos:station:SCCF:12:1,2009-09-06T02:00:00Z,26.4966,-82.1479,2.13,27.33,1111122 
SCCF RECON,ioos:station:SCCF:12:1,2009-09-06T03:00:00Z,26.4966,-82.1479,2.28,28.0,1111122 
SCCF RECON,ioos:station:SCCF:12:1,2009-09-06T04:00:00Z,26.4966,-82.1479,2.46,28.28,1111122 
SCCF RECON,ioos:station:SCCF:12:1,2009-09-06T05:00:00Z,26.4966,-82.1479,2.59,28.15,1111122 
SCCF RECON,ioos:station:SCCF:12:1,2009-09-06T06:00:00Z,26.4966,-82.1479,2.63,27.77,1111122 
SCCF RECON,ioos:station:SCCF:12:1,2009-09-06T07:00:00Z,26.4966,-82.1479,2.61,27.54,1111122 
SCCF RECON,ioos:station:SCCF:12:1,2009-09-06T08:00:00Z,26.4966,-82.1479,2.53,27.38,1111122 
SCCF RECON,ioos:station:SCCF:12:1,2009-09-06T09:00:00Z,26.4966,-82.1479,2.43,27.3,1111122 
SCCF RECON,ioos:station:SCCF:12:1,2009-09-06T10:00:00Z,26.4966,-82.1479,2.31,27.31,1111122 
SCCF RECON,ioos:station:SCCF:12:1,2009-09-06T11:00:00Z,26.4966,-82.1479,2.19,27.24,1111122 
SCCF RECON,ioos:station:SCCF:12:1,2009-09-06T12:00:00Z,26.4966,-82.1479,2.111,27.31,1111122 
SCCF RECON,ioos:station:SCCF:12:1,2009-09-06T13:00:00Z,26.4966,-82.1479,2.075,27.35,1111122 
SCCF RECON,ioos:station:SCCF:12:1,2009-09-06T14:00:00Z,26.4966,-82.1479,2.112,27.37,1111122 
SCCF RECON,ioos:station:SCCF:12:1,2009-09-06T15:00:00Z,26.4966,-82.1479,2.238,27.78,1111122 
SCCF RECON,ioos:station:SCCF:12:1,2009-09-06T16:00:00Z,26.4966,-82.1479,2.404,27.97,1111122 
SCCF RECON,ioos:station:SCCF:12:1,2009-09-06T17:00:00Z,26.4966,-82.1479,2.537,28.04,1111122 
SCCF RECON,ioos:station:SCCF:12:1,2009-09-06T18:00:00Z,26.4966,-82.1479,2.61,28.11,1111122 
SCCF RECON,ioos:station:SCCF:12:1,2009-09-06T19:00:00Z,26.4966,-82.1479,2.638,28.05,1111122 
SCCF RECON,ioos:station:SCCF:12:1,2009-09-06T20:00:00Z,26.4966,-82.1479,2.59,27.87,1111122 
SCCF RECON,ioos:station:SCCF:12:1,2009-09-06T21:00:00Z,26.4966,-82.1479,2.495,27.64,1111122 
SCCF RECON,ioos:station:SCCF:12:1,2009-09-06T22:00:00Z,26.4966,-82.1479,2.388,27.56,1111122 
SCCF RECON,ioos:station:SCCF:12:1,2009-09-06T23:00:00Z,26.4966,-82.1479,2.271,27.49,1111122 
SCCF RECON,ioos:station:SCCF:12:1,2009-09-07T00:00:00Z,26.4966,-82.1479,2.203,27.52,1111122 
SCCF RECON,ioos:station:SCCF:12:1,2009-09-07T01:00:00Z,26.4966,-82.1479,2.17,27.48,1111122 
SCCF RECON,ioos:station:SCCF:12:1,2009-09-07T02:00:00Z,26.4966,-82.1479,2.196,28.02,1111122 
SCCF RECON,ioos:station:SCCF:12:1,2009-09-07T03:00:00Z,26.4966,-82.1479,2.3,28.32,1111122 
SCCF RECON,ioos:station:SCCF:12:1,2009-09-07T04:00:00Z,26.4966,-82.1479,2.41,28.44,1111122 
SCCF RECON,ioos:station:SCCF:12:1,2009-09-07T05:00:00Z,26.4966,-82.1479,2.53,28.47,1111122 
SCCF RECON,ioos:station:SCCF:12:1,2009-09-07T06:00:00Z,26.4966,-82.1479,2.6,28.51,1111122 
SCCF RECON,ioos:station:SCCF:12:1,2009-09-07T07:00:00Z,26.4966,-82.1479,2.61,28.57,1111122 
SCCF RECON,ioos:station:SCCF:12:1,2009-09-07T08:00:00Z,26.4966,-82.1479,2.54,28.05,1111122 
SCCF RECON,ioos:station:SCCF:12:1,2009-09-07T09:00:00Z,26.4966,-82.1479,2.45,28.05,1111122 
SCCF RECON,ioos:station:SCCF:12:1,2009-09-07T10:00:00Z,26.4966,-82.1479,2.33,27.8,1111122 
SCCF RECON,ioos:station:SCCF:12:1,2009-09-07T11:00:00Z,26.4966,-82.1479,2.206,27.62,1111122 
SCCF RECON,ioos:station:SCCF:12:1,2009-09-07T12:00:00Z,26.4966,-82.1479,2.1,27.65,1111122 
SCCF RECON,ioos:station:SCCF:12:1,2009-09-07T13:00:00Z,26.4966,-82.1479,2.02,27.68,1111122 
SCCF RECON,ioos:station:SCCF:12:1,2009-09-07T14:00:00Z,26.4966,-82.1479,1.983,27.71,1111122 
SCCF RECON,ioos:station:SCCF:12:1,2009-09-07T15:00:00Z,26.4966,-82.1479,2.058,27.75,1111122 
SCCF RECON,ioos:station:SCCF:12:1,2009-09-07T16:00:00Z,26.4966,-82.1479,2.223,28.08,1111122 
SCCF RECON,ioos:station:SCCF:12:1,2009-09-07T17:00:00Z,26.4966,-82.1479,2.371,28.08,1111122 
SCCF RECON,ioos:station:SCCF:12:1,2009-09-07T18:00:00Z,26.4966,-82.1479,2.485,28.01,1111122 
SCCF RECON,ioos:station:SCCF:12:1,2009-09-07T19:00:00Z,26.4966,-82.1479,2.547,28.02,1111122 
SCCF RECON,ioos:station:SCCF:12:1,2009-09-07T20:00:00Z,26.4966,-82.1479,2.533,27.99,1111122 
SCCF RECON,ioos:station:SCCF:12:1,2009-09-07T21:00:00Z,26.4966,-82.1479,2.47,27.77,1111122 
SCCF RECON,ioos:station:SCCF:12:1,2009-09-07T22:00:00Z,26.4966,-82.1479,2.38,27.69,1111122 
SCCF RECON,ioos:station:SCCF:12:1,2009-09-07T23:00:00Z,26.4966,-82.1479,2.31,27.67,1111122 
SCCF RECON,ioos:station:SCCF:12:1,2009-09-08T00:00:00Z,26.4966,-82.1479,2.249,27.68,1111122 
SCCF RECON,ioos:station:SCCF:12:1,2009-09-08T01:00:00Z,26.4966,-82.1479,2.219,27.68,1111122 
SCCF RECON,ioos:station:SCCF:12:1,2009-09-08T02:00:00Z,26.4966,-82.1479,2.233,27.71,1111122 
SCCF RECON,ioos:station:SCCF:12:1,2009-09-08T03:00:00Z,26.4966,-82.1479,2.303,27.95,1111122 
SCCF RECON,ioos:station:SCCF:12:1,2009-09-08T04:00:00Z,26.4966,-82.1479,2.437,28.2,1111122 
SCCF RECON,ioos:station:SCCF:12:1,2009-09-08T05:00:00Z,26.4966,-82.1479,2.54,28.45,1111122 
SCCF RECON,ioos:station:SCCF:12:1,2009-09-08T06:00:00Z,26.4966,-82.1479,2.622,28.59,1111122 
SCCF RECON,ioos:station:SCCF:12:1,2009-09-08T07:00:00Z,26.4966,-82.1479,2.65,28.41,1111122 
SCCF RECON,ioos:station:SCCF:12:1,2009-09-08T08:00:00Z,26.4966,-82.1479,2.62,28.18,1111122 
SCCF RECON,ioos:station:SCCF:12:1,2009-09-08T09:00:00Z,26.4966,-82.1479,2.542,27.85,1111122 
SCCF RECON,ioos:station:SCCF:12:1,2009-09-08T10:00:00Z,26.4966,-82.1479,2.46,27.67,1111122 
SCCF RECON,ioos:station:SCCF:12:1,2009-09-08T11:00:00Z,26.4966,-82.1479,2.35,27.62,1111122 
SCCF RECON,ioos:station:SCCF:12:1,2009-09-08T12:00:00Z,26.4966,-82.1479,2.23,27.54,1111122 
SCCF RECON,ioos:station:SCCF:12:1,2009-09-08T13:00:00Z,26.4966,-82.1479,2.12,27.55,1111122 
SCCF RECON,ioos:station:SCCF:12:1,2009-09-08T14:00:00Z,26.4966,-82.1479,2.035,27.66,1111122 
SCCF RECON,ioos:station:SCCF:12:1,2009-09-08T15:00:00Z,26.4966,-82.1479,2.01,27.74,1111122 
SCCF RECON,ioos:station:SCCF:12:1,2009-09-08T16:00:00Z,26.4966,-82.1479,2.1,27.89,1111122 
SCCF RECON,ioos:station:SCCF:12:1,2009-09-08T17:00:00Z,26.4966,-82.1479,2.267,27.98,1111122 
SCCF RECON,ioos:station:SCCF:12:1,2009-09-08T18:00:00Z,26.4966,-82.1479,2.4,28.05,1111122 
SCCF RECON,ioos:station:SCCF:12:1,2009-09-08T19:00:00Z,26.4966,-82.1479,2.47,28.21,1111122 
SCCF RECON,ioos:station:SCCF:12:1,2009-09-08T20:00:00Z,26.4966,-82.1479,2.5,28.27,1111122 
SCCF RECON,ioos:station:SCCF:12:1,2009-09-08T21:00:00Z,26.4966,-82.1479,2.484,27.95,1111122 
SCCF RECON,ioos:station:SCCF:12:1,2009-09-08T22:00:00Z,26.4966,-82.1479,2.442,27.84,1111122 
SCCF RECON,ioos:station:SCCF:12:1,2009-09-08T23:00:00Z,26.4966,-82.1479,2.377,27.61,1111122 
SCCF RECON,ioos:station:SCCF:12:1,2009-09-09T00:00:00Z,26.4966,-82.1479,2.331,27.59,1111122 
SCCF RECON,ioos:station:SCCF:12:1,2009-09-09T01:00:00Z,26.4966,-82.1479,2.288,27.59,1111122 
SCCF RECON,ioos:station:SCCF:12:1,2009-09-09T02:00:00Z,26.4966,-82.1479,2.296,27.75,1111122 
SCCF RECON,ioos:station:SCCF:12:1,2009-09-09T03:00:00Z,26.4966,-82.1479,2.343,27.86,1111122 
SCCF RECON,ioos:station:SCCF:12:1,2009-09-09T04:00:00Z,26.4966,-82.1479,2.4,28.02,1111122 
SCCF RECON,ioos:station:SCCF:12:1,2009-09-09T05:00:00Z,26.4966,-82.1479,2.48,28.28,1111122 
SCCF RECON,ioos:station:SCCF:12:1,2009-09-09T06:00:00Z,26.4966,-82.1479,2.57,28.42,1111122 
SCCF RECON,ioos:station:SCCF:12:1,2009-09-09T07:00:00Z,26.4966,-82.1479,2.62,28.57,1111122 
SCCF RECON,ioos:station:SCCF:12:1,2009-09-09T08:00:00Z,26.4966,-82.1479,2.66,28.53,1111122 
SCCF RECON,ioos:station:SCCF:12:1,2009-09-09T09:00:00Z,26.4966,-82.1479,2.63,28.38,1111122 
SCCF RECON,ioos:station:SCCF:12:1,2009-09-09T10:00:00Z,26.4966,-82.1479,2.555,27.95,1111122 
SCCF RECON,ioos:station:SCCF:12:1,2009-09-09T11:00:00Z,26.4966,-82.1479,2.45,27.81,1111122 
SCCF RECON,ioos:station:SCCF:12:1,2009-09-09T12:00:00Z,26.4966,-82.1479,2.325,27.67,1111122 
SCCF RECON,ioos:station:SCCF:12:1,2009-09-09T13:00:00Z,26.4966,-82.1479,2.208,27.64,1111122 
SCCF RECON,ioos:station:SCCF:12:1,2009-09-09T14:00:00Z,26.4966,-82.1479,2.099,27.7,1111122 
SCCF RECON,ioos:station:SCCF:12:1,2009-09-09T15:00:00Z,26.4966,-82.1479,2.019,27.91,1111122 
SCCF RECON,ioos:station:SCCF:12:1,2009-09-09T16:00:00Z,26.4966,-82.1479,2.0,28.09,1111122 
SCCF RECON,ioos:station:SCCF:12:1,2009-09-09T17:00:00Z,26.4966,-82.1479,2.1,28.24,1111122 
SCCF RECON,ioos:station:SCCF:12:1,2009-09-09T18:00:00Z,26.4966,-82.1479,2.249,28.45,1111122 
SCCF RECON,ioos:station:SCCF:12:1,2009-09-09T19:00:00Z,26.4966,-82.1479,2.365,28.51,1111122 
SCCF RECON,ioos:station:SCCF:12:1,2009-09-09T20:00:00Z,26.4966,-82.1479,2.43,28.73,1111122 
SCCF RECON,ioos:station:SCCF:12:1,2009-09-09T21:00:00Z,26.4966,-82.1479,2.48,28.2,1111122 
SCCF RECON,ioos:station:SCCF:12:1,2009-09-09T22:00:00Z,26.4966,-82.1479,2.49,28.01,1111122 
SCCF RECON,ioos:station:SCCF:12:1,2009-09-09T23:00:00Z,26.4966,-82.1479,2.444,27.76,1111122 
SCCF RECON,ioos:station:SCCF:12:1,2009-09-10T00:00:00Z,26.4966,-82.1479,2.402,27.64,1111122 
SCCF RECON,ioos:station:SCCF:12:1,2009-09-10T01:00:00Z,26.4966,-82.1479,2.368,27.36,1111122 
SCCF RECON,ioos:station:SCCF:12:1,2009-09-10T02:00:00Z,26.4966,-82.1479,2.361,27.05,1111122 
SCCF RECON,ioos:station:SCCF:12:1,2009-09-10T03:00:00Z,26.4966,-82.1479,2.363,26.99,1111122 
SCCF RECON,ioos:station:SCCF:12:1,2009-09-10T04:00:00Z,26.4966,-82.1479,2.397,26.99,1111122 
SCCF RECON,ioos:station:SCCF:12:1,2009-09-10T05:00:00Z,26.4966,-82.1479,2.478,26.95,1111122 
SCCF RECON,ioos:station:SCCF:12:1,2009-09-10T06:00:00Z,26.4966,-82.1479,2.582,27.03,1111122 
SCCF RECON,ioos:station:SCCF:12:1,2009-09-10T07:00:00Z,26.4966,-82.1479,2.647,27.09,1111122 
SCCF RECON,ioos:station:SCCF:12:1,2009-09-10T08:00:00Z,26.4966,-82.1479,2.651,27.16,1111122 
SCCF RECON,ioos:station:SCCF:12:1,2009-09-10T09:00:00Z,26.4966,-82.1479,2.68,27.29,1111122 
SCCF RECON,ioos:station:SCCF:12:1,2009-09-10T10:00:00Z,26.4966,-82.1479,2.671,27.19,1111122 
SCCF RECON,ioos:station:SCCF:12:1,2009-09-10T11:00:00Z,26.4966,-82.1479,2.63,26.94,1111122 
SCCF RECON,ioos:station:SCCF:12:1,2009-09-10T12:00:00Z,26.4966,-82.1479,2.53,26.9,1111122 
SCCF RECON,ioos:station:SCCF:12:1,2009-09-10T13:00:00Z,26.4966,-82.1479,2.392,26.78,1111122 
SCCF RECON,ioos:station:SCCF:12:1,2009-09-10T14:00:00Z,26.4966,-82.1479,2.246,26.73,1111122 
SCCF RECON,ioos:station:SCCF:12:1,2009-09-10T15:00:00Z,26.4966,-82.1479,2.142,26.76,1111122 
SCCF RECON,ioos:station:SCCF:12:1,2009-09-10T16:00:00Z,26.4966,-82.1479,2.069,26.94,1111122 
SCCF RECON,ioos:station:SCCF:12:1,2009-09-10T17:00:00Z,26.4966,-82.1479,2.06,26.85,1111122 
SCCF RECON,ioos:station:SCCF:12:1,2009-09-10T18:00:00Z,26.4966,-82.1479,2.169,27.28,1111122 
SCCF RECON,ioos:station:SCCF:12:1,2009-09-10T19:00:00Z,26.4966,-82.1479,2.297,27.55,1111122 
SCCF RECON,ioos:station:SCCF:12:1,2009-09-10T20:00:00Z,26.4966,-82.1479,2.39,27.28,1111122 
SCCF RECON,ioos:station:SCCF:12:1,2009-09-10T21:00:00Z,26.4966,-82.1479,2.452,27.12,1111122 
SCCF RECON,ioos:station:SCCF:12:1,2009-09-10T22:00:00Z,26.4966,-82.1479,2.48,26.89,1111122 
SCCF RECON,ioos:station:SCCF:12:1,2009-09-10T23:00:00Z,26.4966,-82.1479,2.47,26.92,1111122 
SCCF RECON,ioos:station:SCCF:12:1,2009-09-11T00:00:00Z,26.4966,-82.1479,2.445,26.82,1111122 
SCCF RECON,ioos:station:SCCF:12:1,2009-09-11T01:00:00Z,26.4966,-82.1479,2.46,26.78,1111122 
SCCF RECON,ioos:station:SCCF:12:1,2009-09-11T02:00:00Z,26.4966,-82.1479,2.459,26.88,1111122 
SCCF RECON,ioos:station:SCCF:12:1,2009-09-11T03:00:00Z,26.4966,-82.1479,2.48,26.82,1111122 
SCCF RECON,ioos:station:SCCF:12:1,2009-09-11T04:00:00Z,26.4966,-82.1479,2.46,26.96,1111122 
SCCF RECON,ioos:station:SCCF:12:1,2009-09-11T05:00:00Z,26.4966,-82.1479,2.491,26.93,1111122 
SCCF RECON,ioos:station:SCCF:12:1,2009-09-11T06:00:00Z,26.4966,-82.1479,2.58,26.9,1111122 
SCCF RECON,ioos:station:SCCF:12:1,2009-09-11T07:00:00Z,26.4966,-82.1479,2.66,26.87,1111122 
SCCF RECON,ioos:station:SCCF:12:1,2009-09-11T08:00:00Z,26.4966,-82.1479,2.722,26.88,1111122 
SCCF RECON,ioos:station:SCCF:12:1,2009-09-11T09:00:00Z,26.4966,-82.1479,2.74,26.87,1111122 
SCCF RECON,ioos:station:SCCF:12:1,2009-09-11T10:00:00Z,26.4966,-82.1479,2.71,26.92,1111122 
SCCF RECON,ioos:station:SCCF:12:1,2009-09-11T11:00:00Z,26.4966,-82.1479,2.652,27.0,1111122 
SCCF RECON,ioos:station:SCCF:12:1,2009-09-11T12:00:00Z,26.4966,-82.1479,2.613,27.05,1111122 
SCCF RECON,ioos:station:SCCF:12:1,2009-09-11T13:00:00Z,26.4966,-82.1479,2.522,27.04,1111122 
SCCF RECON,ioos:station:SCCF:12:1,2009-09-11T14:00:00Z,26.4966,-82.1479,2.402,27.22,1111122 
SCCF RECON,ioos:station:SCCF:12:1,2009-09-11T15:00:00Z,26.4966,-82.1479,2.276,27.3,1111122 
SCCF RECON,ioos:station:SCCF:12:1,2009-09-11T16:00:00Z,26.4966,-82.1479,2.162,27.33,1111122 
SCCF RECON,ioos:station:SCCF:12:1,2009-09-11T17:00:00Z,26.4966,-82.1479,2.072,27.32,1111122 
SCCF RECON,ioos:station:SCCF:12:1,2009-09-11T18:00:00Z,26.4966,-82.1479,2.038,27.17,1111122 